This is the latest recevied weather packets stored in our database for station/object KD9DOE. If no packets are shown the sender has not sent any weather packets the latest 1 day(s).
| Time | Temp. | Humidity | Pressure | Rain* | Wind** | Luminosity | Snow |
|---|---|---|---|---|---|---|---|
| 1778029155 | 11.11° C | 32% | 1009.4 hPa | 0 mm | 0 m/s | 2 W/m² | - |
| 1778028854 | 11.11° C | 32% | 1009.2 hPa | 0 mm | 0.45 m/s, 21° | 4 W/m² | - |
| 1778028548 | 11.11° C | 33% | 1009.2 hPa | 0 mm | 0 m/s | 6 W/m² | - |
| 1778028247 | 11.11° C | 33% | 1009.3 hPa | 0 mm | 0 m/s | 9 W/m² | - |
| 1778027942 | 11.11° C | 32% | 1009.1 hPa | 0 mm | 0.89 m/s, 61° | 11 W/m² | - |
| 1778027639 | 11.67° C | 32% | 1009.3 hPa | 0 mm | 0 m/s | 14 W/m² | - |
| 1778027336 | 11.67° C | 31% | 1009.2 hPa | 0 mm | 0.45 m/s, 329° | 15 W/m² | - |
| 1778027032 | 11.67° C | 31% | 1009.1 hPa | 0 mm | 0 m/s | 20 W/m² | - |
| 1778026727 | 11.67° C | 31% | 1009.1 hPa | 0 mm | 0.89 m/s, 331° | 24 W/m² | - |
| 1778026424 | 11.67° C | 32% | 1009 hPa | 0 mm | 0.89 m/s, 297° | 29 W/m² | - |
| 1778026133 | 11.67° C | 33% | 1009.1 hPa | 0 mm | 0 m/s | 33 W/m² | - |
| 1778025820 | 11.67° C | 31% | 1009 hPa | 0 mm | 1.79 m/s, 200° | 36 W/m² | - |
| 1778025516 | 11.67° C | 32% | 1009.1 hPa | 0 mm | 0.45 m/s, 107° | 42 W/m² | - |
| 1778025213 | 11.67° C | 31% | 1009.1 hPa | 0 mm | 0.89 m/s, 302° | 43 W/m² | - |
| 1778024910 | 12.22° C | 31% | 1009 hPa | 0 mm | 0.89 m/s, 11° | 46 W/m² | - |
| 1778024608 | 12.22° C | 31% | 1009 hPa | 0 mm | 0.45 m/s, 255° | 57 W/m² | - |
| 1778024316 | 12.22° C | 31% | 1008.9 hPa | 0 mm | 0.45 m/s, 113° | 54 W/m² | - |
| 1778024003 | 12.78° C | 31% | 1009.1 hPa | 0 mm | 0 m/s | 61 W/m² | - |
| 1778023700 | 12.78° C | 30% | 1009.1 hPa | 0 mm | 0.45 m/s, 323° | 63 W/m² | - |
| 1778023397 | 12.78° C | 29% | 1009.1 hPa | 0 mm | 1.34 m/s, 321° | 96 W/m² | - |
| 1778023094 | 12.78° C | 30% | 1008.9 hPa | 0 mm | 0.89 m/s, 16° | 95 W/m² | - |
| 1778022792 | 12.78° C | 29% | 1009 hPa | 0 mm | 0.45 m/s, 25° | 67 W/m² | - |
| 1778022490 | 13.89° C | 28% | 1008.9 hPa | 0 mm | 0.45 m/s, 298° | 78 W/m² | - |
| 1778022187 | 13.89° C | 28% | 1009.1 hPa | 0 mm | 0.45 m/s, 344° | 129 W/m² | - |
| 1778021883 | 13.89° C | 28% | 1009 hPa | 0 mm | 0.89 m/s, 305° | 151 W/m² | - |
* Rain latest hour (hover to see other rain measurements)
** Current wind speed in m/s (hover to see current wind gust speed)